Regional Weather Roundup
Issued by NWS State College, PA

Home | Current Version | Previous Version | Text Only | Print | Product List | Glossary On
Versions: 1 2 3 4 5 6 7 8 9 10 11 12 13 14 15 16 17 18 19 20 21 22 23 24 25 26 27 28 29 30 31 32 33 34 35 36 37 38 39 40 41 42 43 44 45 46 47 48 49 50
000
ASUS41 KCTP 210410
RWRCTP

REGIONAL WEATHER ROUNDUP
NATIONAL WEATHER SERVICE STATE COLLEGE PA
1200 AM EDT MON APR 21 2014

Note: "fair" indicates few or no clouds below 12,000 feet with no
significant weather and/or obstructions to visibility.

* = STATION THAT DOES NOT REPORT PRECIPITATION /E.G. RAIN...SNOW...ETC/
    THUNDER OR FOG.

PAZ002>004-007>009-013>016-020>023-029>032-210500-
WESTERN PENNSYLVANIA

CITY           SKY/WX    TMP DP  RH WIND       PRES   REMARKS
ERIE           PTCLDY    52  29  41 S8        30.13F
MEADVILLE      PTCLDY    59  22  24 VRB3      30.15F
FRANKLIN*      PTCLDY    55  25  30 SE10      30.19F
NEW CASTLE     FAIR      54  28  36 CALM      30.17S
BEAVER COUNTY  NOT AVBL
BUTLER*        CLEAR     55  27  33 SE7       30.19F
PITTSBURGH INT MOCLDY    59  26  28 SE8       30.16F
PITTSBURGH     CLEAR     57  28  33 SE5       30.17F
INDIANA*       CLEAR     54  32  43 S12       30.21F
LATROBE        CLEAR     55  30  38 SE6       30.19F
WASHINGTON CO* CLEAR     48  30  49 CALM      30.19S
$$

PAZ004>006-010>012-017>019-024>028-033>037-041-042-045-046-049>053-210500-
CENTRAL PENNSYLVANIA

CITY           SKY/WX    TMP DP  RH WIND       PRES   REMARKS
BRADFORD       CLEAR     52  26  36 S8        30.20F
DUBOIS         CLEAR     54  30  40 SE7       30.20F
CLEARFIELD     CLEAR     51  31  46 VRB5      30.23F
JOHNSTOWN      CLEAR     47  30  51 SE9       30.22F
ALTOONA        CLEAR     48  35  60 S7        30.26S
STATE COLLEGE  CLEAR     53  26  35 CALM      30.26S
WILLIAMSPORT   CLEAR     54  31  41 S17G23    30.26F
SELINSGROVE    CLEAR     51  31  46 S7        30.30F
FT INDIANTOWN  NOT AVBL
CAPITAL CITY   CLEAR     49  31  49 E9        30.32S
HARRISBURG     PTCLDY    47  31  53 SE8       30.31F
YORK           CLEAR     46  33  60 SE3       30.31F
$$

PAZ038>040-043-044-047-048-054-055-060>062-067>071-210500-
EASTERN PENNSYLVANIA

CITY           SKY/WX    TMP DP  RH WIND       PRES   REMARKS
SCRANTON       CLEAR     47  26  44 NE3       30.28F
MOUNT POCONO   CLEAR     37  26  64 CALM      30.29F
ALLENTOWN      CLEAR     39  28  64 E3        30.33F
QUAKERTOWN*    CLEAR     37  30  75 CALM      30.33F
READING        CLEAR     47  26  44 S5        30.32F
LANCASTER      CLEAR     41  29  62 NE5       30.32F
COATESVILLE    CLEAR     41  25  52 E5        30.32F
POTTSTOWN      CLEAR     39  29  67 CALM      30.34F
BLUE BELL      CLEAR     37  32  81 CALM      30.33F
DOYLESTOWN     CLEAR     38  27  64 CALM      30.32F
WILLOW GROVE   NOT AVBL
NORTH PHILA    CLEAR     43  22  43 NE5       30.35F
PHILADELPHIA   CLEAR     42  21  43 NE5       30.34F
$$



USA.gov is the U.S. government's official web portal to all federal, state and local government web resources and services.